This demonstration page uses our WeatherBlox Daily Observations layout. Learn more.

Left ArrowRight Arrow

Hourly Observations for July 23, 2018

Temp ( °F °C ) Dew Point ( °F °C ) Humidity (%) Winds ( mph kmh ) Pressure ( in mb ) Visibility ( mi km ) Precip ( " mm )
12:02 am 00:02 Clear 64 18 64 18 100 100 NNE 5 7 29.88 1012 10 16.0934 N/A
12:45 am 00:45 Partly Cloudy 64 18 64 18 100 100 NNE 6 9 29.88 1012 10 16.0934 N/A
1:04 am 01:04 Clear 63 17 63 17 100 100 N 6 9 29.88 1012 10 16.0934 N/A
1:34 am 01:34 Partly Cloudy 63 17 63 17 100 100 N 6 9 29.88 1012 10 16.0934 N/A
1:47 am 01:47 Partly Cloudy 63 17 63 17 100 100 N 6 9 29.88 1012 10 16.0934 N/A
2:06 am 02:06 Clear 61 16 61 16 100 100 NNW 7 11 29.88 1012 10 16.0934 N/A
2:29 am 02:29 Clear 61 16 61 16 100 100 N 6 9 29.88 1012 10 16.0934 N/A
2:51 am 02:51 Clear 61 16 61 16 100 100 N 3 6 29.88 1012 10 16.0934 N/A
3:05 am 03:05 Clear 61 16 61 16 100 100 N 5 7 29.88 1012 10 16.0934 N/A
3:23 am 03:23 Clear 59 15 59 15 100 100 N 3 6 29.88 1012 10 16.0934 N/A
3:47 am 03:47 Clear 59 15 59 15 100 100 N 3 6 29.88 1012 10 16.0934 N/A
4:06 am 04:06 Clear 59 15 59 15 100 100 N 5 7 29.88 1012 10 16.0934 N/A
4:25 am 04:25 Clear 59 15 59 15 100 100 N 3 6 29.88 1012 10 16.0934 N/A
4:51 am 04:51 Clear 59 15 59 15 100 100 NNW 5 7 29.88 1012 10 16.0934 N/A
5:04 am 05:04 Clear 59 15 59 15 100 100 N 3 6 29.88 1012 10 16.0934 N/A
5:22 am 05:22 Clear 57 14 57 14 100 100 NNE 3 6 29.88 1012 10 16.0934 N/A
5:45 am 05:45 Clear 59 15 59 15 100 100 NNW 3 6 29.91 1013 10 16.0934 N/A
6:11 am 06:11 Mostly Cloudy 59 15 59 15 100 100 N N/A 29.91 1013 10 16.0934 N/A
6:24 am 06:24 Mostly Cloudy 59 15 59 15 100 100 NNW 3 6 29.91 1013 10 16.0934 N/A
6:44 am 06:44 Partly Cloudy 59 15 59 15 100 100 N 5 7 29.91 1013 10 16.0934 N/A
7:04 am 07:04 Sunny 59 15 59 15 100 100 N N/A 29.91 1013 10 16.0934 N/A
7:27 am 07:27 Partly Cloudy 59 15 59 15 100 100 N N/A 29.91 1013 10 16.0934 N/A
7:45 am 07:45 Partly Cloudy 63 17 63 17 100 100 N N/A 29.91 1013 10 16.0934 N/A
8:04 am 08:04 Sunny 63 17 63 17 100 100 N N/A 29.91 1013 10 16.0934 N/A
8:23 am 08:23 Sunny 64 18 64 18 100 100 N N/A 29.91 1013 10 16.0934 N/A
8:43 am 08:43 Sunny 64 18 64 18 100 100 N 5 7 29.91 1013 10 16.0934 N/A
9:02 am 09:02 Sunny 66 19 64 18 94 94 N 3 6 29.91 1013 10 16.0934 N/A
9:22 am 09:22 Sunny 68 20 64 18 88 88 NNW 3 6 29.88 1012 10 16.0934 N/A
9:44 am 09:44 Mostly Cloudy 70 21 64 18 83 83 N 7 11 29.88 1012 10 16.0934 N/A
10:02 am 10:02 Cloudy 70 21 64 18 83 83 N 6 9 29.88 1012 10 16.0934 N/A
10:23 am 10:23 Cloudy 70 21 64 18 83 83 NNE 7 11 29.88 1012 10 16.0934 N/A
10:46 am 10:46 Mostly Cloudy 72 22 66 19 83 83 N 5 7 29.88 1012 10 16.0934 N/A
11:04 am 11:04 Mostly Cloudy 72 22 66 19 83 83 N 8 13 29.88 1012 10 16.0934 N/A
11:22 am 11:22 Cloudy 73 23 66 19 78 78 N 6 9 29.88 1012 10 16.0934 N/A
11:43 am 11:43 Cloudy 72 22 66 19 83 83 N 6 9 29.91 1013 10 16.0934 N/A
12:05 pm 12:05 Cloudy 72 22 66 19 83 83 N 9 15 29.91 1013 10 16.0934 N/A
12:24 pm 12:24 Cloudy 70 21 66 19 88 88 NNE 7 11 29.91 1013 10 16.0934 N/A
12:43 pm 12:43 Cloudy 72 22 66 19 83 83 N 9 15 29.91 1013 10 16.0934 N/A
1:06 pm 13:06 Cloudy 70 21 66 19 88 88 NNW 9 15 29.91 1013 10 16.0934 N/A
1:23 pm 13:23 Cloudy 70 21 66 19 88 88 NNW 13 20 29.91 1013 10 16.0934 N/A
1:47 pm 13:47 Cloudy 70 21 68 20 94 94 NNW 7 11 29.91 1013 10 16.0934 N/A
2:08 pm 14:08 Cloudy 72 22 68 20 88 88 N 8 13 29.91 1013 10 16.0934 N/A
2:37 pm 14:37 Cloudy 72 22 68 20 88 88 NW 3 6 29.91 1013 10 16.0934 N/A
3:03 pm 15:03 Cloudy 72 22 68 20 88 88 N N/A 29.91 1013 10 16.0934 N/A
3:25 pm 15:25 Cloudy 73 23 68 20 83 83 N 3 6 29.88 1012 10 16.0934 N/A
3:45 pm 15:45 Cloudy 73 23 68 20 83 83 WNW 5 7 29.88 1012 10 16.0934 N/A
4:04 pm 16:04 Cloudy 73 23 68 20 83 83 NW 6 9 29.88 1012 10 16.0934 N/A
4:26 pm 16:26 Cloudy 73 23 70 21 89 89 NW 6 9 29.88 1012 10 16.0934 N/A
4:46 pm 16:46 Cloudy 73 23 68 20 83 83 N 8 13 29.88 1012 10 16.0934 N/A
5:02 pm 17:02 Cloudy 73 23 68 20 83 83 N 6 9 29.88 1012 10 16.0934 N/A
5:22 pm 17:22 Cloudy 73 23 68 20 83 83 NNW 8 13 29.88 1012 10 16.0934 N/A
5:47 pm 17:47 Cloudy 73 23 68 20 83 83 NNW 8 13 29.91 1013 10 16.0934 N/A
6:03 pm 18:03 Cloudy 73 23 68 20 83 83 NW 6 9 29.91 1013 10 16.0934 N/A
6:23 pm 18:23 Cloudy 73 23 68 20 83 83 WNW 6 9 29.91 1013 10 16.0934 N/A
6:46 pm 18:46 Cloudy 73 23 68 20 83 83 NNW 6 9 29.91 1013 10 16.0934 N/A
7:06 pm 19:06 Cloudy 72 22 68 20 88 88 NNW 10 17 29.91 1013 10 16.0934 N/A
7:24 pm 19:24 Cloudy 72 22 68 20 88 88 N 10 17 29.91 1013 10 16.0934 N/A
7:44 pm 19:44 Cloudy 70 21 70 21 100 100 NNW 5 7 29.91 1013 10 16.0934 N/A
8:03 pm 20:03 Cloudy 70 21 70 21 100 100 N N/A 29.91 1013 10 16.0934 N/A
8:25 pm 20:25 Cloudy 70 21 70 21 100 100 N N/A 29.91 1013 10 16.0934 N/A
8:45 pm 20:45 Cloudy 70 21 70 21 100 100 N N/A 29.91 1013 10 16.0934 N/A
9:03 pm 21:03 Cloudy 70 21 70 21 100 100 N N/A 29.91 1013 10 16.0934 N/A
9:22 pm 21:22 Cloudy 70 21 70 21 100 100 NNW 3 6 29.94 1014 10 16.0934 N/A
9:46 pm 21:46 Cloudy 70 21 70 21 100 100 N 5 7 29.94 1014 10 16.0934 N/A
10:02 pm 22:02 Cloudy 68 20 68 20 100 100 N 3 6 29.97 1015 10 16.0934 N/A
10:23 pm 22:23 Cloudy 68 20 68 20 100 100 N 3 6 29.97 1015 10 16.0934 N/A
10:43 pm 22:43 Mostly Cloudy 68 20 68 20 100 100 N N/A 29.97 1015 10 16.0934 N/A
11:03 pm 23:03 Mostly Cloudy 66 19 66 19 100 100 NNW 5 7 29.97 1015 10 16.0934 N/A
11:22 pm 23:22 Cloudy 66 19 66 19 100 100 NW 3 6 29.97 1015 10 16.0934 N/A
11:45 pm 23:45 Mostly Cloudy 66 19 66 19 100 100 N N/A 29.97 1015 10 16.0934 N/A

Powered by AerisWeather